Menomonie, WI

7:56 AM CST on December 08, 2019 (GMT -0600)
Menomonie

Weather History for KLUM - October, 2019

Change the Weather History Date:

Saturday, October 19, 2019

  Actual Average (KEAU) Record (KEAU)
Temperature  
Mean Temperature 46 °F -  
Max Temperature 57 °F 55 °F 81 °F (2000)
Min Temperature 36 °F 32 °F 14 °F (1972)
Degree Days  
Heating Degree Days 18    
Moisture  
Dew Point 43 °F    
Average Humidity 82    
Maximum Humidity 100    
Minimum Humidity 59    
Precipitation  
Precipitation 0.01 in - - ()
Sea Level Pressure  
Sea Level Pressure 29.68 in    
Wind  
Wind Speed 9 mph (South)    
Max Wind Speed 17 mph    
Max Gust Speed 23 mph    
Visibility 9 miles    
Events Fog , Rain    
Averages and records for this station are not official NWS values.
T = Trace of Precipitation, MM = Missing Value Source: NWS Daily Summary

Daily Weather History Graph

Daily Weather History Graph

Search for Another Location

Airport or City:

Astronomy

Oct. 19, 2019 Rise Set
Actual Time 7:28 AM CDT 6:16 PM CDT
Civil Twilight 6:58 AM CDT 6:45 PM CDT
Nautical Twilight 6:24 AM CDT 7:19 PM CDT
Astronomical Twilight 5:50 AM CDT 7:53 PM CDT
Moon 10:14 PM CDT (10/19) 1:11 PM CDT (10/19)
Length of Visible Light 11h 47m
Length of Day
10h 48m
Waning Gibbous, 69% of the Moon is Illuminated
Oct 19
Waning Gibbous
Oct 21
Last Quarter
Oct 27
New
Nov 4
First Quarter
Nov 12
Full

Hourly Weather History & Observations

Time (CDT) Temp. Windchill Dew Point Humidity Pressure Visibility Wind Dir Wind Speed Gust Speed Precip Events Conditions
12:15 AM 53.8 °F - 39.7 °F 59% 29.66 in 10.0 mi SSE 17.3 mph 23.0 mph N/A   Mostly Cloudy
12:35 AM 53.2 °F - 39.7 °F 60% 29.66 in 10.0 mi SSE 16.1 mph - N/A   Clear
12:55 AM 52.9 °F - 39.7 °F 61% 29.65 in 10.0 mi SSE 15.0 mph - N/A   Clear
1:15 AM 52.7 °F - 39.7 °F 61% 29.65 in 10.0 mi SSE 13.8 mph 23.0 mph N/A   Clear
1:35 AM 52.0 °F - 39.9 °F 63% 29.65 in 10.0 mi SSE 13.8 mph 20.7 mph N/A   Clear
1:55 AM 52.0 °F - 40.1 °F 64% 29.64 in 10.0 mi SSE 11.5 mph 20.7 mph N/A   Clear
2:15 AM 51.8 °F - 40.1 °F 64% 29.64 in 10.0 mi SSE 11.5 mph - N/A   Clear
2:35 AM 50.9 °F - 40.1 °F 67% 29.64 in 10.0 mi SSE 11.5 mph 17.3 mph N/A   Clear
2:55 AM 50.9 °F - 40.1 °F 67% 29.64 in 10.0 mi SSE 11.5 mph - N/A   Clear
3:15 AM 50.4 °F - 40.1 °F 68% 29.63 in 10.0 mi SSE 10.4 mph - N/A   Clear
3:35 AM 49.8 °F - 40.1 °F 69% 29.63 in 10.0 mi South 6.9 mph - N/A   Clear
3:55 AM 48.9 °F - 40.1 °F 72% 29.63 in 10.0 mi SSE 5.8 mph - N/A   Clear
4:15 AM 48.9 °F - 40.1 °F 72% 29.63 in 10.0 mi SSE 5.8 mph - N/A   Clear
4:35 AM 48.9 °F - 40.3 °F 72% 29.64 in 10.0 mi SSE 8.1 mph - N/A   Clear
4:55 AM 48.2 °F - 40.3 °F 74% 29.64 in 10.0 mi SSE 5.8 mph - N/A   Clear
5:15 AM 48.2 °F - 40.5 °F 75% 29.63 in 10.0 mi SSE 6.9 mph - N/A   Scattered Clouds
5:35 AM 48.7 °F - 40.8 °F 74% 29.63 in 10.0 mi SSE 6.9 mph - N/A   Mostly Cloudy
5:55 AM 49.5 °F - 41.0 °F 73% 29.64 in 10.0 mi South 10.4 mph - N/A Rain Light Rain
6:15 AM 48.4 °F - 41.9 °F 78% 29.64 in 10.0 mi South 8.1 mph - N/A   Overcast
6:35 AM 47.3 °F - 42.8 °F 84% 29.64 in 7.0 mi SSE 5.8 mph - 0.01 in Rain Rain
6:55 AM 47.3 °F - 43.2 °F 86% 29.64 in 10.0 mi SSE 3.5 mph - 0.01 in   Light Drizzle
7:15 AM 46.9 °F - 43.5 °F 88% 29.64 in 10.0 mi SSE 4.6 mph - N/A   Overcast
7:35 AM 46.8 °F - 43.7 °F 89% 29.63 in 10.0 mi North 3.5 mph - N/A   Overcast
7:55 AM 46.4 °F - 44.1 °F 92% 29.64 in 10.0 mi Calm Calm - N/A   Overcast
8:15 AM 46.0 °F 44.8 °F 44.4 °F 94% 29.65 in 10.0 mi North 3.5 mph - N/A   Overcast
8:35 AM 47.3 °F - 44.8 °F 91% 29.67 in 10.0 mi South 9.2 mph - N/A   Overcast
8:55 AM 47.5 °F - 44.8 °F 90% 29.68 in 10.0 mi South 9.2 mph - N/A   Overcast
9:15 AM 47.7 °F - 44.6 °F 89% 29.69 in 10.0 mi SSW 9.2 mph - N/A Rain Rain
9:35 AM 47.5 °F - 45.0 °F 91% 29.69 in 10.0 mi SSW 6.9 mph - N/A   Drizzle
9:55 AM 47.3 °F - 45.7 °F 94% 29.69 in 10.0 mi WSW 5.8 mph - N/A Rain Rain
10:15 AM 47.3 °F - 45.9 °F 95% 29.70 in 7.0 mi SW 4.6 mph - N/A Rain Light Rain
10:35 AM 47.5 °F - 46.6 °F 97% 29.71 in 5.0 mi WSW 4.6 mph - N/A Rain Light Rain
10:55 AM 47.3 °F - 46.6 °F 97% 29.71 in 7.0 mi SW 4.6 mph - N/A Rain Rain
11:15 AM 47.7 °F - 46.8 °F 97% 29.71 in 5.0 mi SW 3.5 mph - N/A Rain Light Rain
11:35 AM 47.8 °F - 47.3 °F 98% 29.71 in 5.0 mi Calm Calm - N/A Rain Rain
11:55 AM 47.8 °F - 47.3 °F 98% 29.71 in 7.0 mi SSW 3.5 mph - N/A Rain Rain
12:15 PM 48.6 °F - 47.8 °F 97% 29.70 in 5.0 mi SSE 3.5 mph - N/A Rain Light Rain
12:35 PM 49.1 °F - 47.8 °F 95% 29.69 in 10.0 mi Calm Calm - N/A   Mostly Cloudy
12:55 PM 49.5 °F - 48.2 °F 95% 29.70 in 10.0 mi SW 3.5 mph - N/A   Overcast
1:35 PM 50.9 °F - 49.1 °F 94% 29.70 in 10.0 mi SSW 4.6 mph - N/A   Mostly Cloudy
1:55 PM 52.2 °F - 49.3 °F 90% 29.69 in 10.0 mi South 4.6 mph - N/A   Scattered Clouds
2:15 PM 54.0 °F - 48.6 °F 82% 29.68 in 10.0 mi SSW 6.9 mph - N/A   Clear
2:35 PM 54.7 °F - 46.9 °F 75% 29.68 in 10.0 mi SSW 6.9 mph - N/A   Clear
2:55 PM 55.6 °F - 46.8 °F 72% 29.68 in 10.0 mi SSW 6.9 mph - N/A   Clear
3:15 PM 56.1 °F - 47.1 °F 72% 29.68 in 10.0 mi South 8.1 mph - N/A   Clear
3:35 PM 56.7 °F - 46.4 °F 69% 29.68 in 10.0 mi SSW 6.9 mph - N/A   Clear
3:55 PM 57.0 °F - 45.7 °F 66% 29.68 in 10.0 mi South 8.1 mph - N/A   Clear
4:15 PM 56.8 °F - 44.1 °F 62% 29.68 in 10.0 mi SW 5.8 mph - N/A   Clear
4:35 PM 57.0 °F - 44.1 °F 62% 29.68 in 10.0 mi South 10.4 mph - N/A   Clear
4:55 PM 56.7 °F - 43.2 °F 61% 29.68 in 10.0 mi SSW 8.1 mph - N/A   Clear
5:15 PM 56.1 °F - 43.7 °F 63% 29.69 in 10.0 mi South 6.9 mph - N/A   Clear
5:35 PM 55.0 °F - 43.2 °F 64% 29.69 in 10.0 mi South 5.8 mph - N/A   Clear
5:55 PM 52.7 °F - 43.0 °F 70% 29.69 in 10.0 mi South 4.6 mph - N/A   Clear
6:15 PM 50.0 °F - 42.1 °F 74% 29.69 in 10.0 mi SSE 5.8 mph - N/A   Clear
6:35 PM 48.7 °F - 41.9 °F 77% 29.69 in 10.0 mi SE 4.6 mph - N/A   Clear
6:55 PM 49.1 °F - 42.6 °F 78% 29.70 in 10.0 mi ESE 3.5 mph - N/A   Clear
7:15 PM 47.3 °F - 42.4 °F 83% 29.70 in 10.0 mi ESE 4.6 mph - N/A   Clear
7:35 PM 45.5 °F 44.2 °F 41.9 °F 87% 29.71 in 10.0 mi East 3.5 mph - N/A   Clear
7:55 PM 45.3 °F 43.0 °F 42.8 °F 91% 29.71 in 10.0 mi East 4.6 mph - N/A   Clear
8:15 PM 45.5 °F 43.2 °F 42.8 °F 90% 29.71 in 10.0 mi East 4.6 mph - N/A   Clear
8:35 PM 43.7 °F 42.1 °F 41.9 °F 93% 29.71 in 10.0 mi East 3.5 mph - N/A   Clear
8:55 PM 43.5 °F - 42.4 °F 96% 29.72 in 10.0 mi Calm Calm - N/A   Clear
9:15 PM 43.3 °F 41.7 °F 42.3 °F 96% 29.72 in 10.0 mi ENE 3.5 mph - N/A   Clear
9:35 PM 41.7 °F 39.8 °F 41.2 °F 98% 29.73 in 10.0 mi East 3.5 mph - N/A   Clear
9:55 PM 39.7 °F - 39.4 °F 99% 29.73 in 10.0 mi Calm Calm - N/A   Clear
10:15 PM 40.3 °F - 40.3 °F 100% 29.73 in 7.0 mi Calm Calm - N/A   Clear
10:35 PM 37.9 °F - 37.9 °F 100% 29.74 in 0.8 mi Calm Calm - N/A   Mist
10:55 PM 39.0 °F - 39.0 °F 100% 29.74 in 0.5 mi Calm Calm - N/A Fog Fog
11:15 PM 38.5 °F - 38.5 °F 100% 29.74 in 0.2 mi Calm Calm - N/A Fog Fog
11:35 PM 36.9 °F - 36.9 °F 100% 29.75 in 0.5 mi Calm Calm - N/A Fog Fog
11:55 PM 36.7 °F - 36.7 °F 100% 29.75 in 0.5 mi Calm Calm - N/A Fog Fog